Meacham, OR

11:35 AM PDT on April 23, 2017 (GMT -0700)
Meacham

Weather History for KMEH - June, 2013

Change the Weather History Date:

Tuesday, June 25, 2013

  Actual Average Record
Temperature  
Mean Temperature 54 °F -  
Max Temperature 63 °F 69 °F 84 °F (1997)
Min Temperature 44 °F 37 °F 33 °F (2003)
Degree Days  
Heating Degree Days 12    
Growing Degree Days 4 (Base 50)    
Moisture  
Dew Point 50 °F    
Average Humidity 87    
Maximum Humidity 96    
Minimum Humidity 60    
Precipitation  
Precipitation 0.27 in - - ()
Sea Level Pressure  
Sea Level Pressure 29.86 in    
Wind  
Wind Speed 1 mph (SW)    
Max Wind Speed 8 mph    
Max Gust Speed 22 mph    
Visibility 8 miles    
Events Rain    
Averages and records for this station are not official NWS values.
T = Trace of Precipitation, MM = Missing Value Source: NWS Daily Summary

Daily Weather History Graph

Daily Weather History Graph

Search for Another Location

Airport or City:

Trip Planner

Search our weather history database for the weather conditions in past years. The results will help you decide how hot, cold, wet, or windy it might be!

Date:

Astronomy

Jun. 25, 2013 Rise Set
Actual Time 5:06 AM PDT 8:46 PM PDT
Civil Twilight 4:28 AM PDT 9:24 PM PDT
Nautical Twilight 3:37 AM PDT 10:15 PM PDT
Astronomical Twilight 2:28 AM PDT 11:24 PM PDT
Moon 10:24 PM PDT (6/25) 8:00 AM PDT (6/25)
Length of Visible Light 16h 56m
Length of Day
15h 40m
Waning Gibbous, 92% of the Moon is Illuminated
Jun 25
Waning Gibbous
Jun 29
Last Quarter
Jul 8
New
Jul 15
First Quarter
Jul 22
Full

Hourly Weather History & Observations

Time (PDT) Temp. Dew Point Humidity Pressure Visibility Wind Dir Wind Speed Gust Speed Precip Events Conditions
12:56 AM 44.1 °F 42.1 °F 93% 29.80 in 10.0 mi Calm Calm - N/A   Overcast
1:56 AM 46.0 °F 44.1 °F 93% 29.81 in 8.0 mi Calm Calm - 0.00 in Rain Light Rain
2:56 AM 48.0 °F 46.0 °F 93% 29.80 in 6.0 mi Calm Calm - 0.03 in Rain Light Rain
3:56 AM 50.0 °F 48.0 °F 93% 29.80 in 10.0 mi Calm Calm - 0.01 in   Overcast
4:56 AM 50.0 °F 48.0 °F 93% 29.80 in 10.0 mi Calm Calm - 0.00 in   Overcast
5:56 AM 51.1 °F 48.9 °F 92% 29.79 in 10.0 mi Calm Calm - N/A   Partly Cloudy
6:56 AM 52.0 °F 50.0 °F 93% 29.79 in 10.0 mi Calm Calm - N/A   Partly Cloudy
7:56 AM 53.1 °F 51.1 °F 93% 29.81 in 10.0 mi Calm Calm - N/A   Overcast
8:56 AM 54.0 °F 51.1 °F 90% 29.82 in 10.0 mi Calm Calm - 0.02 in   Mostly Cloudy
9:56 AM 57.9 °F 51.1 °F 78% 29.81 in 10.0 mi Calm Calm - N/A   Scattered Clouds
10:56 AM 57.9 °F 52.0 °F 81% 29.81 in 10.0 mi Calm Calm - 0.00 in Rain Light Rain
11:09 AM 53.6 °F 51.8 °F 94% 29.85 in 2.5 mi West 8.1 mph - 0.00 in   Overcast
11:15 AM 51.8 °F 50.0 °F 94% 29.86 in 0.8 mi Variable 5.8 mph 21.9 mph 0.00 in   Overcast
11:22 AM 51.8 °F 48.2 °F 88% 29.86 in 2.0 mi Variable 5.8 mph - 0.00 in Rain Light Rain
11:31 AM 51.8 °F 48.2 °F 88% 29.88 in 1.5 mi Calm Calm - 0.02 in Rain Heavy Rain
11:45 AM 50.0 °F 48.2 °F 94% 29.90 in 3.0 mi Calm Calm - 0.08 in Rain Light Rain
11:56 AM 50.0 °F 48.0 °F 93% 29.90 in 5.0 mi Calm Calm - 0.08 in Rain Light Rain
12:56 PM 52.0 °F 48.9 °F 89% 29.90 in 10.0 mi Calm Calm - 0.02 in Rain Light Rain
1:56 PM 57.9 °F 53.1 °F 84% 29.86 in 10.0 mi South 4.6 mph - 0.02 in   Mostly Cloudy
2:56 PM 60.1 °F 52.0 °F 75% 29.86 in 10.0 mi Calm Calm - N/A   Overcast
3:56 PM 63.0 °F 48.9 °F 60% 29.85 in 10.0 mi Variable 3.5 mph - N/A   Overcast
4:56 PM 60.1 °F 50.0 °F 69% 29.86 in 10.0 mi Calm Calm - N/A   Overcast
5:56 PM 61.0 °F 52.0 °F 72% 29.85 in 10.0 mi Calm Calm - N/A   Mostly Cloudy
6:56 PM 57.9 °F 50.0 °F 75% 29.86 in 10.0 mi Calm Calm - N/A   Overcast
7:56 PM 57.0 °F 51.1 °F 81% 29.87 in 10.0 mi Calm Calm - N/A   Overcast
8:56 PM 55.0 °F 51.1 °F 86% 29.89 in 10.0 mi Calm Calm - 0.00 in Rain Light Rain
9:56 PM 54.0 °F 52.0 °F 93% 29.90 in 10.0 mi Calm Calm - 0.00 in   Overcast
10:32 PM 53.6 °F 51.8 °F 94% 29.95 in 1.8 mi Calm Calm - 0.04 in Rain Rain
10:42 PM 53.6 °F 51.8 °F 94% 29.95 in 3.0 mi Calm Calm - 0.08 in Rain Light Rain
10:56 PM 53.1 °F 51.1 °F 93% 29.93 in 10.0 mi Calm Calm - 0.09 in Rain Light Rain
11:26 PM 53.6 °F 51.8 °F 94% 29.96 in 10.0 mi Calm Calm - N/A   Mostly Cloudy
11:56 PM 53.1 °F 52.0 °F 96% 29.95 in 10.0 mi Calm Calm - N/A   Overcast